Flag Weather past 2 weeks in St. Wendel, Saarland, Germany

Now
37 °F

Low clouds.


Feels Like: 30 °F
Forecast: 32 / 41 °F
Wind: 10 mph from East

Location: Saarbruecken / Ensheim

Current Time: Nov 29, 2014 at 1:34:03 AM

Latest Report: Nov 29, 2014 at 12:50 AM


Visibility: 5 mi

Pressure: 29.86 "Hg

Humidity: 93%

Dew point: 36 °F

Location of St. WendelLocation

Historic Weather in St. Wendel — Graph

°F

St. Wendel temperature yesterday

Maximum temperature yesterday: 41 °F (at 12:20 AM)
Minimum temperature yesterday: 37 °F (at 8:20 PM)
Average temperature yesterday: 40 °F

Past Weeks' High & Low Weather Summary

 TemperatureHumidityPressure
High55 °F (Nov 22, 1:20 PM)100% (Nov 14, 1:50 AM)30.27 "Hg (Nov 14, 1:50 AM)
Low37 °F (Nov 28, 8:20 PM)72% (Nov 22, 1:20 PM)29.53 "Hg (Nov 15, 3:20 AM)
Average44 °F92%29.92 "Hg
* Reported Nov 14 12:20 AM — Nov 29 12:20 AM, St. Wendel, Weather by CustomWeather, © 2014

Note: Actual official high and low records may vary slightly from our data, if they occured in-between our weather recording intervals... More about our weather records

Advertising

St. Wendel weather history for previous 24 hours

 ConditionsComfort  
Time TempWeatherWind HumidityBarometerVisibility
12:20 AM
Nov 29
37 °FLow clouds.15 mph93%29.86 "Hg5 mi
11:50 PM
Nov 28
37 °FLow clouds.12 mph93%29.86 "Hg5 mi
11:20 PM37 °FLow clouds.10 mph93%29.83 "Hg5 mi
10:50 PM37 °FLow clouds.14 mph93%29.83 "Hg5 mi
10:20 PM37 °FLow clouds.16 mph93%29.83 "Hg5 mi
9:50 PM37 °FLow clouds.13 mph93%29.83 "Hg5 mi
9:20 PM37 °FLow clouds.14 mph93%29.83 "Hg5 mi
8:50 PM37 °FPassing clouds.15 mph93%29.83 "Hg4 mi
8:20 PM37 °FPassing clouds.18 mph93%29.80 "Hg4 mi
7:50 PM39 °FPassing clouds.16 mph87%29.80 "Hg4 mi
7:20 PM39 °FPassing clouds.15 mph87%29.80 "Hg4 mi
6:50 PM39 °FPassing clouds.17 mph87%29.80 "Hg4 mi
6:20 PM39 °FPassing clouds.15 mph87%29.80 "Hg4 mi
5:50 PM39 °FPassing clouds.18 mph87%29.77 "Hg4 mi
5:20 PM39 °FPassing clouds.17 mph93%29.77 "Hg4 mi
4:50 PM39 °FPassing clouds.16 mph93%29.77 "Hg4 mi
4:20 PM39 °FPartly sunny.16 mph93%29.77 "Hg4 mi
3:50 PM39 °FScattered clouds.15 mph87%29.74 "Hg5 mi
3:20 PM39 °FScattered clouds.15 mph87%29.74 "Hg5 mi
2:50 PM41 °FPassing clouds.12 mph81%29.74 "Hg6 mi
2:20 PM41 °FPassing clouds.13 mph81%29.74 "Hg6 mi
1:50 PM41 °FPassing clouds.15 mph87%29.74 "Hg5 mi
1:20 PM41 °FScattered clouds.15 mph87%29.74 "Hg5 mi
12:50 PM41 °FScattered clouds.12 mph87%29.74 "Hg4 mi
12:20 PM41 °FScattered clouds.9 mph87%29.74 "Hg4 mi
11:50 AM39 °FPartly sunny.13 mph93%29.77 "Hg4 mi
11:20 AM39 °FPartly sunny.14 mph93%29.77 "Hg4 mi
10:50 AM39 °FFog.16 mph93%29.77 "Hg3 mi
10:20 AM39 °FFog.18 mph93%29.77 "Hg3 mi
9:50 AM39 °FFog.13 mph93%29.77 "Hg3 mi
9:20 AM39 °FFog.12 mph93%29.74 "Hg3 mi
8:50 AM39 °FFog.14 mph93%29.74 "Hg3 mi
8:20 AM39 °FFog.15 mph93%29.74 "Hg3 mi
7:50 AM41 °FFog.14 mph93%29.74 "Hg2 mi
7:20 AM41 °FFog.14 mph93%29.74 "Hg3 mi
6:50 AM41 °FFog.14 mph93%29.74 "Hg3 mi
6:20 AM41 °FFog.13 mph93%29.74 "Hg3 mi
5:50 AM41 °FFog.12 mph93%29.74 "Hg3 mi
5:20 AM41 °FFog.10 mph100%29.74 "Hg3 mi
4:50 AM41 °FFog.13 mph93%29.74 "Hg2 mi
4:20 AM41 °FFog.14 mph93%29.74 "Hg3 mi
3:50 AM41 °FLow clouds.15 mph93%29.74 "Hg4 mi
3:20 AM41 °FLow clouds.13 mph93%29.74 "Hg4 mi
2:50 AM41 °FLow clouds.13 mph93%29.74 "Hg4 mi
2:20 AM41 °FLow clouds.15 mph93%29.74 "Hg4 mi
1:50 AM41 °FLow clouds.13 mph93%29.74 "Hg4 mi
1:20 AM41 °FLow clouds.12 mph93%29.74 "Hg4 mi
Weather by CustomWeather, © 2014

See weather overviewHow to use our weather pages